Regional Weather Roundup
Issued by NWS

Home | Current Version | Previous Version | Text Only | Print | Product List | Glossary On
Versions: 1 2 3 4 5 6 7 8 9 10 11 12 13 14 15 16 17 18 19 20 21 22 23 24 25 26 27 28 29 30 31 32 33 34 35 36 37 38 39 40 41 42 43 44 45 46 47 48 49 50
000
ASUS44 KMEG 011310
RWRTN
TENNESSEE HOURLY STATE WEATHER ROUNDUP
NATIONAL WEATHER SERVICE MEMPHIS TN
800 AM CDT FRI AUG 01 2014

TNZ002-004-019-021-049-052-054-088>092-011400-
WEST TENNESSEE

CITY           SKY/WX    TMP DP  RH WIND       PRES   REMARKS
MEMPHIS INTL   CLOUDY    72  66  81 NE7       30.08R
NWS MEMPHIS      N/A     71 N/A N/A MISG        N/A
JACKSON        MOSUNNY   72  65  78 CALM      30.08S
DYERSBURG      PTSUNNY   70  59  68 NE3       30.09S
UNION CITY     MOSUNNY   66  66 100 N3        30.08R
PARIS          MOSUNNY   68  63  84 NE5       30.09S
LEXINGTON      MOSUNNY   68  64  88 CALM      30.08R
SAVANNAH       MOSUNNY   70  69  96 CALM      30.08S
$$

TNZ008-025-027-028-033-062-065-066-011400-
NORTH MIDDLE TENNESSEE

CITY           SKY/WX    TMP DP  RH WIND       PRES   REMARKS
NASHVILLE      MOSUNNY   69  64  84 CALM      30.09S
DICKSON        SUNNY     68  63  83 CALM      30.09R
PORTLAND       SUNNY     64  61  88 CALM      30.09S
CLARKSVILLE    SUNNY     68  62  81 CALM      30.09R
LEBANON        SUNNY     67  60  78 CALM      30.08S
SMYRNA         SUNNY     67  67 100 CALM      30.10R
MURFREESBORO   SUNNY     67  61  81 E3        30.09R
COOKEVILLE     PTSUNNY   64  64 100 CALM      30.11S
LIVINGSTON       N/A     71  61  70 CALM      30.13R
GALLATIN       SUNNY     67  63  87 CALM      30.10S
CROSSVILLE     SUNNY     69  63  81 CALM      30.15R
$$

TNZ061-075-076-078-094-096-097-011400-
SOUTH MIDDLE TENNESSEE

CITY           SKY/WX    TMP DP  RH WIND       PRES   REMARKS
LEWISBURG      SUNNY     65  61  87 S3        30.08S
FAYETTEVILLE   SUNNY     68  63  83 NE10      30.09S
TULLAHOMA      SUNNY     66  63  88 CALM      30.12R
WINCHESTER     SUNNY     70  64  83 CALM      30.10S
MCMINNVILLE    SUNNY     66  66 100 CALM      30.11S
COLUMBIA       SUNNY     66  64  94 CALM      30.07S
SHELBYVILLE    SUNNY     70  64  83 E5        30.10S
$$

TNZ017-018-042-046-047-011400-
NORTHEAST TENNESSEE

CITY           SKY/WX    TMP DP  RH WIND       PRES   REMARKS
TRI CITIES     CLOUDY    69  61  75 CALM      30.15S
$$

TNZ012-013-036-069-073-074-011400-
CENTRAL EAST TENNESSEE

CITY           SKY/WX    TMP DP  RH WIND       PRES   REMARKS
KNOXVILLE      PTSUNNY   70  64  81 VRB3      30.11R
OAK RIDGE      CLOUDY    69  64  84 CALM      30.13R
GATLINBURG     SUNNY     68  63  83 CALM      30.11S
MORRISTOWN     SUNNY     70  63  78 E6        30.13S
$$

TNZ083-085-099-011400-
SOUTHEAST TENNESSEE

CITY           SKY/WX    TMP DP  RH WIND       PRES   REMARKS
CHATTANOOGA    PTSUNNY   71  66  84 NE5       30.10R
$$

SKY/WX REPORTED AS FAIR MEANS FEW OR NO CLOUDS BELOW
12 THOUSAND FEET.



USA.gov is the U.S. government's official web portal to all federal, state and local government web resources and services.